SWA2491 KPHX-KLAX

Flight info

Callsign SWA2491
Flight time N/A
Altitude 32000
Route KEENS3 WLVRN ESTWD HLYWD1
Aircraft B737/M-SADE2E3GIJ4RWZ/LB1D1

Departure

Time 2026-05-04 02:10
Airport Phoenix Sky Harbor International Airport (KPHX)

Arrival

Time N/A
Airport Los Angeles International Airport (KLAX)
Time Latitude Longitude Altitude Speed Heading
2026-05-04 01:49 33.43405 -111.99870 1123 ft 0 kts 293°
2026-05-04 01:58 33.43404 -111.99868 1114 ft 1 kts 293°
2026-05-04 01:59 33.43399 -111.99850 1114 ft 3 kts 271°
2026-05-04 01:59 33.43402 -111.99832 1115 ft 3 kts 219°
2026-05-04 01:59 33.43413 -111.99825 1119 ft 1 kts 180°
2026-05-04 01:59 33.43415 -111.99825 1119 ft 1 kts 180°
2026-05-04 02:01 33.43406 -111.99825 1116 ft 3 kts 180°
2026-05-04 02:01 33.43375 -111.99825 1121 ft 6 kts 180°
2026-05-04 02:02 33.43340 -111.99825 1120 ft 2 kts 180°
2026-05-04 02:02 33.43337 -111.99825 1118 ft 0 kts 180°
2026-05-04 02:03 33.43321 -111.99823 1118 ft 9 kts 171°
2026-05-04 02:03 33.43282 -111.99709 1123 ft 19 kts 90°
2026-05-04 02:03 33.43282 -111.99552 1118 ft 19 kts 90°
2026-05-04 02:03 33.43283 -111.99444 1123 ft 0 kts 90°
2026-05-04 02:04 33.43283 -111.99440 1123 ft 3 kts 90°
2026-05-04 02:04 33.43281 -111.99373 1123 ft 11 kts 99°
2026-05-04 02:05 33.43216 -111.99345 1123 ft 9 kts 181°
2026-05-04 02:05 33.43195 -111.99345 1119 ft 0 kts 180°
2026-05-04 02:06 33.43181 -111.99345 1119 ft 6 kts 180°
2026-05-04 02:06 33.43119 -111.99352 1118 ft 10 kts 208°
2026-05-04 02:06 33.43105 -111.99399 1122 ft 0 kts 270°
2026-05-04 02:09 33.43105 -111.99607 1123 ft 61 kts 270°
2026-05-04 02:09 33.43105 -112.00387 1124 ft 125 kts 270°
2026-05-04 02:09 33.43104 -112.01624 1254 ft 163 kts 269°
2026-05-04 02:10 33.43080 -112.02917 2224 ft 143 kts 262°
2026-05-04 02:10 33.43047 -112.04080 3058 ft 140 kts 262°
2026-05-04 02:10 33.43001 -112.05377 3413 ft 173 kts 262°
2026-05-04 02:10 33.42913 -112.06944 3687 ft 204 kts 255°
2026-05-04 02:11 33.42432 -112.08615 4042 ft 223 kts 247°
2026-05-04 02:11 33.41882 -112.10376 4704 ft 234 kts 247°
2026-05-04 02:11 33.41292 -112.12297 5256 ft 252 kts 248°
2026-05-04 02:11 33.40687 -112.14287 6121 ft 259 kts 247°
2026-05-04 02:12 33.40066 -112.16334 7001 ft 263 kts 247°
2026-05-04 02:12 33.39435 -112.18421 7914 ft 271 kts 248°
2026-05-04 02:12 33.39177 -112.20698 8902 ft 284 kts 269°
2026-05-04 02:12 33.39445 -112.23065 9904 ft 291 kts 275°
2026-05-04 02:13 33.39816 -112.25489 10647 ft 306 kts 276°
2026-05-04 02:13 33.40230 -112.28119 10889 ft 337 kts 277°
2026-05-04 02:13 33.40678 -112.30979 11191 ft 360 kts 277°
2026-05-04 02:13 33.41141 -112.33968 11926 ft 368 kts 277°
2026-05-04 02:14 33.41602 -112.36976 12910 ft 368 kts 277°
2026-05-04 02:14 33.42057 -112.39996 13824 ft 369 kts 277°
2026-05-04 02:14 33.42509 -112.43034 14662 ft 371 kts 276°
2026-05-04 02:14 33.42959 -112.46078 15573 ft 372 kts 276°
2026-05-04 02:15 33.43257 -112.48096 16176 ft 372 kts 276°
2026-05-04 02:15 33.43706 -112.51154 17057 ft 373 kts 276°
2026-05-04 02:15 33.44156 -112.54222 17940 ft 373 kts 276°
2026-05-04 02:15 33.44597 -112.57212 19288 ft 356 kts 276°
2026-05-04 02:16 33.45007 -112.60064 20728 ft 339 kts 275°
2026-05-04 02:16 33.45175 -112.62803 22186 ft 321 kts 269°
2026-05-04 02:16 33.45185 -112.65406 23633 ft 306 kts 268°
2026-05-04 02:16 33.45170 -112.67936 24591 ft 303 kts 268°
2026-05-04 02:17 33.45171 -112.70468 25308 ft 306 kts 269°
2026-05-04 02:17 33.45190 -112.73023 26012 ft 308 kts 269°
2026-05-04 02:17 33.45220 -112.75598 26734 ft 309 kts 269°
2026-05-04 02:17 33.45254 -112.78174 27441 ft 310 kts 270°
2026-05-04 02:18 33.45563 -112.80747 28127 ft 316 kts 281°
2026-05-04 02:18 33.46298 -112.83212 28805 ft 320 kts 286°
2026-05-04 02:18 33.47159 -112.85681 29459 ft 323 kts 287°
2026-05-04 02:18 33.48052 -112.88155 30074 ft 324 kts 288°
2026-05-04 02:19 33.48948 -112.90632 30698 ft 323 kts 287°
2026-05-04 02:19 33.49831 -112.93087 31376 ft 320 kts 287°
2026-05-04 02:19 33.50705 -112.95537 31713 ft 319 kts 287°
2026-05-04 02:19 33.51574 -112.97995 31777 ft 325 kts 287°
2026-05-04 02:20 33.52464 -113.00539 31800 ft 336 kts 287°
2026-05-04 02:20 33.53374 -113.03142 31793 ft 340 kts 287°
2026-05-04 02:20 33.55188 -113.08317 31777 ft 333 kts 287°
2026-05-04 02:21 33.56967 -113.13415 31779 ft 330 kts 287°
2026-05-04 02:21 33.58727 -113.18474 31813 ft 329 kts 286°
2026-05-04 02:22 33.60486 -113.23542 31881 ft 330 kts 286°
2026-05-04 02:22 33.62241 -113.28609 31930 ft 332 kts 286°
2026-05-04 02:23 33.64018 -113.33743 31986 ft 334 kts 286°
2026-05-04 02:23 33.65797 -113.38893 32026 ft 335 kts 286°
2026-05-04 02:24 33.67580 -113.44060 32068 ft 335 kts 286°
2026-05-04 02:24 33.69360 -113.49227 32093 ft 334 kts 286°
2026-05-04 02:25 33.71139 -113.54406 32111 ft 342 kts 286°
2026-05-04 02:25 33.72060 -113.57101 32095 ft 353 kts 286°
2026-05-04 02:25 33.73004 -113.59859 32088 ft 362 kts 286°
2026-05-04 02:26 33.74960 -113.65567 32043 ft 376 kts 286°
2026-05-04 02:26 33.76983 -113.71468 31950 ft 386 kts 286°
2026-05-04 02:27 33.79022 -113.77428 31910 ft 388 kts 286°
2026-05-04 02:27 33.81040 -113.83342 31837 ft 374 kts 286°
2026-05-04 02:28 33.82987 -113.89093 31776 ft 370 kts 286°
2026-05-04 02:28 33.84926 -113.94844 31762 ft 371 kts 285°
2026-05-04 02:29 33.86865 -114.00594 31753 ft 371 kts 285°
2026-05-04 02:29 33.88801 -114.06341 31745 ft 371 kts 285°
2026-05-04 02:30 33.90671 -114.12122 31736 ft 368 kts 281°
2026-05-04 02:30 33.91748 -114.18106 31740 ft 365 kts 277°
2026-05-04 02:31 33.92710 -114.24097 31720 ft 359 kts 277°
2026-05-04 02:31 33.93658 -114.29835 31725 ft 347 kts 277°
2026-05-04 02:32 33.94611 -114.35544 31730 ft 349 kts 277°
2026-05-04 02:32 33.95574 -114.41281 31724 ft 350 kts 277°
2026-05-04 02:33 33.96538 -114.47020 31721 ft 350 kts 277°
2026-05-04 02:33 33.97501 -114.52761 31717 ft 349 kts 276°
2026-05-04 02:34 33.98460 -114.58493 31719 ft 349 kts 276°
2026-05-04 02:34 33.99415 -114.64227 31714 ft 349 kts 276°
2026-05-04 02:35 34.00368 -114.69959 31728 ft 349 kts 276°
2026-05-04 02:35 34.01320 -114.75707 31724 ft 349 kts 276°
2026-05-04 02:36 34.02268 -114.81445 31725 ft 349 kts 276°
2026-05-04 02:36 34.03206 -114.87139 31724 ft 348 kts 276°
2026-05-04 02:37 34.04145 -114.92859 31724 ft 347 kts 276°